Location: Dob?e?
(49.9411°N, 15.1496°E)
Time: 07:14:32
(UTC+00:00)

GP-B - Pass Details

Date: 07 June 2020
Orbit: 631 x 635 km, 89.8° (Epoch: 12 July)

Event Time Altitude Azimuth Distance (km) Brightness Sun altitude
Rises 00:33:23 0° 359° (N) 2,946 7.9 -14.3°
Reaches altitude 10° 00:35:38 10° 358° (N) 2,032 6.8 -14.1°
Maximum altitude 00:40:05 74° 274° (W) 666 3.1 -13.9°
Enters shadow 00:43:00 21° 192° (SSW) 1,424 4.3 -13.7°
